Weather History for Shreveport Downtown, LA

Change the Weather History Date:

Friday, March 28, 2014

  Actual Average (KSHV) Record (KSHV)
Temperature  
Mean Temperature 70 °F 61 °F  
Max Temperature 81 °F 73 °F 88 °F (1879)
Min Temperature 60 °F 49 °F 31 °F (1955)
Degree Days  
Heating Degree Days 0 6  
Month to date heating degree days 235  
Since 1 July heating degree days 2117  
Cooling Degree Days 6 1  
Month to date cooling degree days 26  
Year to date cooling degree days 36  
Growing Degree Days 20 (Base 50)    
Moisture  
Dew Point 63 °F    
Average Humidity 86    
Maximum Humidity 100    
Minimum Humidity 56    
Precipitation  
Precipitation 1.28 in 0.13 in 4.37 in (1944)
Month to date precipitation 3.70  
Year to date precipitation 12.65  
Snow  
Snow 0.00 in - - ()
Month to date snowfall  
Since 1 July snowfall  
Snow Depth -    
Sea Level Pressure  
Sea Level Pressure 29.83 in    
Wind  
Wind Speed 6 mph (ESE)    
Max Wind Speed 21 mph    
Max Gust Speed 38 mph    
Visibility 7 miles    
Events Rain , Thunderstorm    
T = Trace of Precipitation, MM = Missing Value Source: NWS Daily Summary

Daily Weather History Graph

Daily Weather History Graph

Search for Another Location

Airport:

Trip Planner

Search our weather history database for the weather conditions in past years. The results will help you decide how hot, cold, wet, or windy it might be!

Date:

Astronomy

Mar. 28, 2014 Rise Set
Actual Time 7:08 AM CDT 7:32 PM CDT
Civil Twilight 6:43 AM CDT 7:56 PM CDT
Nautical Twilight 6:14 AM CDT 8:25 PM CDT
Astronomical Twilight 5:45 AM CDT 8:55 PM CDT
Moon 5:32 AM CDT (3/28) 5:35 PM CDT (3/28)
Length of Visible Light 13h 13m
Length of Day
12h 23m
Waning Crescent, 6% of the Moon is Illuminated
Mar 28
Waning Crescent
Mar 30
New
Apr 7
First Quarter
Apr 15
Full
Apr 22
Last Quarter

Hourly Weather History & Observations

Time (CDT) Temp. Heat Index Dew Point Humidity Pressure Visibility Wind Dir Wind Speed Gust Speed Precip Events Conditions
12:53 AM 64.9 °F - 64.0 °F 97% 29.80 in 10.0 mi South 8.1 mph - N/A   Overcast
1:53 AM 66.0 °F - 64.9 °F 96% 29.78 in 10.0 mi South 8.1 mph - N/A   Overcast
2:53 AM 68.0 °F - 64.9 °F 90% 29.79 in 10.0 mi Calm Calm - N/A   Overcast
3:44 AM 66.2 °F - 64.4 °F 94% 29.79 in 8.0 mi Calm Calm - N/A   Overcast
3:53 AM 66.0 °F - 64.9 °F 96% 29.79 in 7.0 mi East 3.5 mph - N/A   Overcast
4:15 AM 66.2 °F - 64.4 °F 94% 29.79 in 6.0 mi ENE 3.5 mph - N/A   Overcast
4:29 AM 64.4 °F - 64.4 °F 100% 29.79 in 6.0 mi East 3.5 mph - N/A   Overcast
4:53 AM 64.9 °F - 64.0 °F 97% 29.79 in 5.0 mi East 3.5 mph - N/A   Overcast
5:26 AM 64.4 °F - 64.4 °F 100% 29.80 in 4.0 mi Calm Calm - N/A   Overcast
5:41 AM 64.4 °F - 64.4 °F 100% 29.80 in 4.0 mi Calm Calm - N/A   Overcast
5:53 AM 64.9 °F - 64.0 °F 97% 29.80 in 5.0 mi ESE 3.5 mph - N/A   Overcast
6:53 AM 64.9 °F - 64.0 °F 97% 29.83 in 5.0 mi East 3.5 mph - N/A   Overcast
7:27 AM 64.4 °F - 64.4 °F 100% 29.86 in 5.0 mi East 4.6 mph - N/A   Overcast
7:43 AM 66.2 °F - 64.4 °F 94% 29.87 in 4.0 mi Calm Calm - N/A   Overcast
7:53 AM 64.9 °F - 64.0 °F 97% 29.87 in 4.0 mi East 5.8 mph - N/A   Overcast
8:53 AM 66.0 °F - 64.0 °F 93% 29.88 in 6.0 mi SE 5.8 mph - N/A   Overcast
9:44 AM 68.0 °F - 64.4 °F 88% 29.88 in 8.0 mi ESE 8.1 mph - N/A   Overcast
9:53 AM 68.0 °F - 66.0 °F 93% 29.88 in 8.0 mi ESE 6.9 mph - N/A   Overcast
10:28 AM 69.8 °F - 66.2 °F 88% 29.88 in 10.0 mi ESE 5.8 mph - N/A   Mostly Cloudy
10:53 AM 72.0 °F - 66.9 °F 84% 29.88 in 10.0 mi SSE 9.2 mph - N/A   Overcast
11:53 AM 73.9 °F - 68.0 °F 82% 29.87 in 9.0 mi SSE 6.9 mph - N/A   Mostly Cloudy
12:18 PM 75.2 °F - 66.2 °F 73% 29.87 in 10.0 mi Variable 3.5 mph - N/A   Mostly Cloudy
12:53 PM 75.9 °F - 66.0 °F 71% 29.86 in 10.0 mi Calm Calm - N/A   Overcast
1:25 PM 75.2 °F - 64.4 °F 69% 29.85 in 10.0 mi Variable 4.6 mph - N/A   Mostly Cloudy
1:53 PM 80.1 °F 81.9 °F 64.9 °F 60% 29.83 in 10.0 mi WSW 10.4 mph - N/A   Mostly Cloudy
2:53 PM 80.1 °F 81.5 °F 63.0 °F 56% 29.79 in 10.0 mi WSW 3.5 mph - N/A   Partly Cloudy
3:53 PM 81.0 °F 82.5 °F 64.0 °F 56% 29.76 in 10.0 mi ESE 5.8 mph - N/A   Clear
4:53 PM 79.0 °F - 64.0 °F 60% 29.73 in 10.0 mi SE 11.5 mph - N/A   Partly Cloudy
5:53 PM 77.0 °F - 64.0 °F 64% 29.74 in 10.0 mi Calm Calm - N/A   Clear
6:20 PM 75.2 °F - 64.4 °F 69% 29.74 in 10.0 mi Calm Calm - N/A Thunderstorm Thunderstorm
6:44 PM 66.2 °F - 60.8 °F 83% 29.82 in 1.8 mi West 17.3 mph 38.0 mph 0.24 in Rain , Thunderstorm Heavy Thunderstorms and Rain
6:53 PM 63.0 °F - 60.1 °F 90% 29.79 in 1.0 mi NNW 9.2 mph - 0.56 in Rain , Thunderstorm Heavy Thunderstorms and Rain
7:01 PM 64.4 °F - 57.2 °F 77% 29.74 in 2.0 mi NNW 12.7 mph 19.6 mph 0.09 in Rain , Thunderstorm Thunderstorms and Rain
7:09 PM 64.4 °F - 57.2 °F 77% 29.76 in 10.0 mi WNW 12.7 mph 18.4 mph 0.09 in Rain , Thunderstorm Light Thunderstorms and Rain
7:53 PM 64.0 °F - 60.1 °F 87% 29.82 in 10.0 mi NNE 5.8 mph - 0.16 in Rain , Thunderstorm Light Rain
8:15 PM 62.6 °F - 59.0 °F 88% 29.88 in 5.0 mi North 8.1 mph 19.6 mph 0.04 in Rain , Thunderstorm Thunderstorms and Rain
8:39 PM 60.8 °F - 57.2 °F 88% 29.85 in 3.0 mi North 10.4 mph 18.4 mph 0.16 in Rain , Thunderstorm Heavy Thunderstorms and Rain
8:53 PM 61.0 °F - 57.9 °F 90% 29.84 in 5.0 mi North 10.4 mph - 0.19 in Rain , Thunderstorm Rain
9:53 PM 61.0 °F - 59.0 °F 93% 29.88 in 4.0 mi SE 11.5 mph - 0.25 in Rain Rain
10:10 PM 60.8 °F - 59.0 °F 94% 29.86 in 5.0 mi SE 12.7 mph - 0.07 in Rain , Thunderstorm Thunderstorms and Rain
10:25 PM 60.8 °F - 59.0 °F 94% 29.78 in 5.0 mi ESE 20.7 mph 28.8 mph 0.12 in Rain Rain
10:53 PM 61.0 °F - 59.0 °F 93% 29.89 in 10.0 mi West 8.1 mph - 0.12 in   Partly Cloudy
11:38 PM 60.8 °F - 59.0 °F 94% 29.92 in 10.0 mi WNW 6.9 mph - N/A   Mostly Cloudy
11:53 PM 61.0 °F - 59.0 °F 93% 29.93 in 10.0 mi NW 4.6 mph - N/A   Overcast